FW0549 Weather Reports


Display with metric or nautical units.
time (UTC)temp
F
wind
direction
speed
MPH
gust
MPH
rain 1hr
in
rain 24hr
in
rain mn
in
humidity
%
barometer
mb
20210921054957 34 180 0.0 9.0 0.00 0.00 0.00 71 1011.3
20210921054057 34 180 6.0 9.0 0.00 0.00 0.00 69 1010.9
20210921053157 34 154 1.0 5.0 0.00 0.00 0.00 67 1011.2
20210921052257 34 135 3.0 9.0 0.00 0.00 0.00 64 1011.0
20210921051357 35 135 1.0 3.0 0.00 0.00 0.00 57 1010.8
20210921050457 36 135 1.0 3.0 0.00 0.00 0.00 53 1010.9
20210921045556 36 135 1.0 2.0 0.00 0.00 0.00 52 1010.7
20210921044657 36 135 1.0 3.0 0.00 0.00 0.00 54 1010.9
20210921043757 36 111 1.0 7.0 0.00 0.00 0.00 57 1010.8
20210921042857 35 90 5.0 6.0 0.00 0.00 0.00 59 1010.6
20210921041957 36 90 0.0 5.0 0.00 0.00 0.00 58 1010.8
20210921041057 35 90 3.0 5.0 0.00 0.00 0.00 59 1010.7
20210921040157 36 90 0.0 4.0 0.00 0.00 0.00 57 1010.7
20210921035257 36 90 3.0 6.0 0.00 0.00 0.00 56 1010.5
20210921034356 36 102 4.0 6.0 0.00 0.00 0.00 54 1010.6
20210921033456 36 90 3.0 6.0 0.00 0.00 0.00 50 1010.6
20210921032556 37 121 1.0 8.0 0.00 0.00 0.00 48 1010.9
20210921031657 38 238 3.0 8.0 0.00 0.00 0.00 48 1010.7
20210921030757 38 181 5.0 9.0 0.00 0.00 0.00 45 1010.3
20210921025856 39 122 6.0 11.0 0.00 0.00 0.00 42 1010.3
20210921024957 40 90 7.0 11.0 0.00 0.00 0.00 31 1009.9
20210921024057 41 90 3.0 5.0 0.00 0.00 0.00 26 1009.9
20210921023157 42 90 1.0 8.0 0.00 0.00 0.00 26 1009.7
20210921022257 42 90 2.0 7.0 0.00 0.00 0.00 26 1009.4
20210921021356 42 90 1.0 5.0 0.00 0.00 0.00 26 1009.3
20210921020457 42 90 3.0 5.0 0.00 0.00 0.00 26 1009.2
20210921015556 42 90 1.0 7.0 0.00 0.00 0.00 26 1009.0
20210921014657 42 90 1.0 10.0 0.00 0.00 0.00 26 1008.8
20210921013757 43 90 5.0 10.0 0.00 0.00 0.00 26 1008.7
20210921012856 43 90 3.0 9.0 0.00 0.00 0.00 25 1008.5
20210921011956 43 90 5.0 9.0 0.00 0.00 0.00 25 1008.3
20210921011057 43 90 5.0 10.0 0.00 0.00 0.00 25 1008.1
20210921010157 43 90 5.0 8.0 0.00 0.00 0.00 25 1007.9
20210921005256 43 90 1.0 7.0 0.00 0.00 0.00 25 1007.8
20210921004357 44 90 2.0 9.0 0.00 0.00 0.00 24 1007.8
20210921003457 44 90 4.0 10.0 0.00 0.00 0.00 24 1007.8
20210921002557 44 90 3.0 7.0 0.00 0.00 0.00 23 1007.6
20210921001657 45 90 2.0 8.0 0.00 0.00 0.00 23 1007.5
20210921000757 45 90 5.0 7.0 0.00 0.00 0.00 23 1007.4
20210920235857 45 90 4.0 9.0 0.00 0.00 0.00 22 1007.1
20210920234957 46 90 5.0 9.0 0.00 0.00 0.00 22 1007.0
20210920234056 46 90 5.0 11.0 0.00 0.00 0.00 22 1007.1
20210920233157 46 88 7.0 11.0 0.00 0.00 0.00 22 1007.0
20210920232257 46 82 7.0 10.0 0.00 0.00 0.00 22 1006.9
20210920231357 46 90 5.0 10.0 0.00 0.00 0.00 25 1006.9
20210920230457 46 90 7.0 9.0 0.00 0.00 0.00 24 1006.8
20210920225556 46 92 3.0 11.0 0.00 0.00 0.00 21 1006.7
20210920224657 48 90 5.0 11.0 0.00 0.00 0.00 23 1006.7
20210920223757 47 76 6.0 12.0 0.00 0.00 0.00 23 1006.6
20210920222857 48 90 4.0 9.0 0.00 0.00 0.00 22 1006.6
20210920221957 50 90 3.0 9.0 0.00 0.00 0.00 21 1006.4
20210920221056 49 90 1.0 7.0 0.00 0.00 0.00 22 1006.3
20210920220157 50 90 3.0 9.0 0.00 0.00 0.00 22 1006.4
20210920215257 50 90 1.0 7.0 0.00 0.00 0.00 22 1006.2
20210920214357 48 90 1.0 9.0 0.00 0.00 0.00 22 1006.1
20210920213457 48 150 4.0 12.0 0.00 0.00 0.00 24 1006.3
20210920212557 47 270 6.0 11.0 0.00 0.00 0.00 23 1006.2
20210920211657 49 270 3.0 13.0 0.00 0.00 0.00 22 1005.9
20210920210756 48 270 5.0 14.0 0.00 0.00 0.00 22 1005.9
20210920205857 49 270 4.0 23.0 0.00 0.00 0.00 23 1005.8
20210920204956 52 270 11.0 29.0 0.00 0.00 0.00 21 1005.4
20210920204057 50 270 11.0 23.0 0.00 0.00 0.00 21 1005.8
20210920203157 51 270 13.0 24.0 0.00 0.00 0.00 21 1005.8
20210920202257 51 270 9.0 20.0 0.00 0.00 0.00 21 1005.8
20210920201357 49 270 14.0 26.0 0.00 0.00 0.00 23 1006.0
20210920200457 50 270 14.0 26.0 0.00 0.00 0.00 23 1005.6
20210920195557 51 270 14.0 23.0 0.00 0.00 0.00 21 1005.9
20210920194656 50 270 9.0 21.0 0.00 0.00 0.00 21 1006.0
20210920193757 49 270 10.0 21.0 0.00 0.00 0.00 22 1005.9
20210920192857 50 270 9.0 20.0 0.00 0.00 0.00 22 1006.2
20210920191956 49 270 9.0 21.0 0.00 0.00 0.00 22 1006.1
20210920191057 48 270 13.0 24.0 0.00 0.00 0.00 23 1006.2
20210920190157 49 270 15.0 22.0 0.00 0.00 0.00 22 1006.3
20210920185257 47 270 11.0 22.0 0.00 0.00 0.00 23 1006.2
20210920184357 47 270 5.0 23.0 0.00 0.00 0.00 23 1005.8
20210920183457 46 270 13.0 23.0 0.00 0.00 0.00 21 1005.9
20210920182556 46 266 11.0 23.0 0.00 0.00 0.00 21 1006.1
20210920181657 46 252 13.0 21.0 0.00 0.00 0.00 21 1006.0
20210920180757 46 225 6.0 19.0 0.00 0.00 0.00 21 1006.1
20210920175857 45 226 12.0 21.0 0.00 0.00 0.00 22 1006.1
20210920174957 45 231 5.0 26.0 0.00 0.00 0.00 22 1006.1
20210920174057 47 201 14.0 24.0 0.00 0.00 0.00 24 1005.7
20210920173156 47 223 3.0 24.0 0.00 0.00 0.00 23 1005.6
20210920172256 47 239 7.0 23.0 0.00 0.00 0.00 23 1005.4
20210920171357 46 212 9.0 21.0 0.00 0.00 0.00 21 1005.2
20210920170456 46 280 11.0 30.0 0.00 0.00 0.00 21 1004.9
20210920165557 45 319 17.0 28.0 0.00 0.00 0.00 21 1005.1
20210920164656 45 258 16.0 28.0 0.00 0.00 0.00 22 1005.1
20210920163757 45 278 15.0 28.0 0.00 0.00 0.00 24 1005.3
20210920162857 44 270 15.0 25.0 0.00 0.00 0.00 26 1005.3
20210920161957 44 273 13.0 28.0 0.00 0.00 0.00 27 1005.2
20210920161056 43 309 14.0 21.0 0.00 0.00 0.00 28 1005.2
20210920160157 41 279 12.0 32.0 0.00 0.00 0.00 31 1005.1
20210920155257 42 272 9.0 31.0 0.00 0.00 0.00 30 1004.9
20210920154356 41 273 14.0 26.0 0.00 0.00 0.00 31 1004.9
20210920153457 41 277 20.0 31.0 0.00 0.00 0.00 31 1004.9
20210920152556 40 276 15.0 28.0 0.00 0.00 0.00 28 1004.8
20210920151657 40 268 10.0 27.0 0.00 0.00 0.00 28 1004.6
20210920150757 40 270 15.0 26.0 0.00 0.00 0.00 28 1004.5
20210920145857 39 278 13.0 28.0 0.00 0.00 0.00 28 1004.6
20210920144956 38 271 19.0 27.0 0.00 0.00 0.00 30 1004.6
20210920144057 38 266 17.0 28.0 0.00 0.00 0.00 31 1004.6
20210920143157 38 270 8.0 26.0 0.00 0.00 0.00 33 1004.7
20210920142257 37 283 8.0 19.0 0.00 0.00 0.00 41 1004.8
20210920141357 36 270 11.0 20.0 0.00 0.00 0.00 41 1004.8
20210920140457 36 274 10.0 23.0 0.00 0.00 0.00 42 1004.8
20210920135557 36 277 14.0 23.0 0.00 0.00 0.00 41 1004.9
20210920134657 36 270 10.0 17.0 0.00 0.00 0.00 42 1004.7
20210920133757 35 283 9.0 18.0 0.00 0.00 0.00 42 1004.6
20210920132857 35 274 8.0 15.0 0.00 0.00 0.00 42 1004.5
20210920131957 35 227 7.0 15.0 0.00 0.00 0.00 42 1004.5
20210920131057 35 225 3.0 10.0 0.00 0.00 0.00 43 1004.3
20210920130157 35 225 4.0 11.0 0.00 0.00 0.00 42 1003.9
20210920125257 35 225 4.0 13.0 0.00 0.00 0.00 41 1003.5
20210920124357 35 225 5.0 11.0 0.00 0.00 0.00 42 1003.3
20210920123457 36 268 5.0 20.0 0.00 0.00 0.00 41 1003.2
20210920122557 35 258 11.0 25.0 0.00 0.00 0.00 42 1003.0
20210920121657 35 189 6.0 16.0 0.00 0.00 0.00 42 1002.5
20210920120757 36 180 3.0 10.0 0.00 0.00 0.00 42 1002.5
20210920115857 36 176 7.0 14.0 0.00 0.00 0.00 41 1002.4
20210920114957 36 216 7.0 17.0 0.00 0.00 0.00 41 1002.6
20210920114057 36 246 10.0 18.0 0.00 0.00 0.00 40 1002.6
20210920113157 36 299 5.0 23.0 0.00 0.00 0.00 39 1002.5
20210920112256 36 270 4.0 9.0 0.00 0.00 0.00 40 1002.4
20210920111356 36 294 2.0 14.0 0.00 0.00 0.00 39 1002.4
20210920110457 36 266 5.0 18.0 0.00 0.00 0.00 40 1002.6
20210920105557 36 233 7.0 19.0 0.00 0.00 0.00 42 1002.9
20210920104656 36 234 9.0 23.0 0.00 0.00 0.00 43 1002.6
20210920103757 38 264 6.0 19.0 0.00 0.00 0.00 45 1002.6
20210920102857 39 270 5.0 15.0 0.00 0.00 0.00 44 1002.4
20210920101957 39 273 6.0 19.0 0.00 0.00 0.00 47 1002.2
20210920101057 39 245 11.0 19.0 0.00 0.00 0.00 46 1002.3
20210920095256 43 158 5.0 24.0 0.00 0.00 0.00 46 1002.1
20210920094356 44 169 10.0 24.0 0.00 0.00 0.00 40 1002.2
20210920093456 43 180 3.0 7.0 0.00 0.00 0.00 39 1002.4
20210920092556 43 180 3.0 5.0 0.00 0.00 0.00 39 1002.4
20210920091656 43 180 3.0 9.0 0.00 0.00 0.00 39 1002.2
20210920090756 43 180 3.0 9.0 0.00 0.00 0.00 39 1002.2
20210920085856 43 180 4.0 9.0 0.00 0.00 0.00 41 1002.2
20210920084956 42 180 3.0 14.0 0.00 0.00 0.00 41 1002.2
20210920084056 43 180 3.0 11.0 0.00 0.00 0.00 40 1002.4
20210920083156 44 210 5.0 11.0 0.00 0.00 0.00 39 1002.4
20210920082256 44 225 4.0 9.0 0.00 0.00 0.00 39 1002.1
20210920081356 45 225 3.0 8.0 0.00 0.00 0.00 39 1002.0
20210920080456 46 225 3.0 13.0 0.00 0.00 0.00 40 1002.1
20210920075556 45 231 8.0 25.0 0.00 0.00 0.00 40 1002.1
20210920074656 45 212 9.0 25.0 0.00 0.00 0.00 42 1002.0
20210920073756 48 180 2.0 6.0 0.00 0.00 0.00 42 1002.2
20210920072856 48 180 3.0 5.0 0.00 0.00 0.00 37 1001.9
20210920071956 49 180 1.0 5.0 0.00 0.00 0.00 38 1001.6
20210920071056 49 180 1.0 6.0 0.00 0.00 0.00 35 1001.5
20210920070156 50 180 3.0 6.0 0.00 0.00 0.00 34 1001.4
20210920065256 51 180 2.0 6.0 0.00 0.00 0.00 28 1001.5
20210920064356 50 180 1.0 7.0 0.00 0.00 0.00 26 1001.4
20210920063456 53 180 2.0 9.0 0.00 0.00 0.00 22 1001.3
20210920062556 52 180 3.0 5.0 0.00 0.00 0.00 23 1001.2
20210920061656 51 180 2.0 5.0 0.00 0.00 0.00 24 1001.4
20210920060756 51 180 2.0 3.0 0.00 0.00 0.00 25 1001.2
20210920055856 49 0 0.0 0.0 0.00 0.00 0.00 27 1001.3